| time (UTC) | temp F | wind direction | speed MPH | gust MPH | rain 1hr in | rain 24hr in | rain mn in | humidity % | barometer mb |
| 20260507110007 | 41 | 240 | 0.0 | 0.0 | 0.00 | 0.01 | 0.00 | 90 | 1011.4 |
| 20260507104502 | 40 | 240 | 0.0 | 0.0 | 0.00 | 0.01 | 0.00 | 90 | 1011.2 |
| 20260507103001 | 41 | 240 | 0.0 | 0.0 | 0.00 | 0.01 | 0.00 | 87 | 1011.1 |
| 20260507101602 | 42 | 240 | 0.0 | 0.0 | 0.00 | 0.01 | 0.00 | 87 | 1010.9 |
| 20260507100120 | 42 | 240 | 0.0 | 0.0 | 0.00 | 0.01 | 0.00 | 86 | 1011.1 |
| 20260507094607 | 42 | 240 | 0.0 | 3.0 | 0.00 | 0.05 | 0.00 | 85 | 1011.0 |
| 20260507093057 | 42 | 236 | 0.0 | 3.0 | 0.00 | 0.05 | 0.00 | 86 | 1011.0 |
| 20260507091622 | 42 | 236 | 0.0 | 0.0 | 0.00 | 0.05 | 0.00 | 88 | 1011.1 |
| 20260507090055 | 42 | 236 | 0.0 | 0.0 | 0.00 | 0.05 | 0.00 | 87 | 1011.1 |
| 20260507084605 | 42 | 236 | 0.0 | 0.0 | 0.00 | 0.08 | 0.00 | 88 | 1011.2 |
| 20260507083053 | 42 | 236 | 0.0 | 0.0 | 0.00 | 0.08 | 0.00 | 90 | 1011.2 |
| 20260507081558 | 41 | 177 | 0.0 | 0.0 | 0.00 | 0.08 | 0.00 | 91 | 1011.3 |
| 20260507080051 | 41 | 177 | 0.0 | 0.0 | 0.00 | 0.08 | 0.00 | 90 | 1011.3 |
| 20260507074556 | 41 | 177 | 0.0 | 0.0 | 0.00 | 0.14 | 0.00 | 90 | 1011.2 |
| 20260507073052 | 41 | 164 | 0.0 | 0.0 | 0.00 | 0.14 | 0.00 | 91 | 1011.3 |
| 20260507071548 | 40 | 164 | 0.0 | 0.0 | 0.00 | 0.14 | 0.00 | 91 | 1011.3 |
| 20260507070048 | 40 | 163 | 0.0 | 0.0 | 0.00 | 0.14 | 0.00 | 90 | 1011.4 |
| 20260507064546 | 41 | 163 | 0.0 | 0.0 | 0.00 | 0.20 | 0.00 | 89 | 1011.5 |
| 20260507063044 | 41 | 163 | 0.0 | 0.0 | 0.00 | 0.20 | 0.00 | 89 | 1011.6 |
| 20260507061540 | 42 | 163 | 0.0 | 0.0 | 0.00 | 0.20 | 0.00 | 88 | 1011.7 |
| 20260507060043 | 42 | 163 | 0.0 | 3.0 | 0.00 | 0.20 | 0.00 | 87 | 1011.7 |
| 20260507054538 | 42 | 140 | 0.0 | 4.0 | 0.00 | 0.28 | 0.00 | 86 | 1011.9 |
| 20260507053033 | 42 | 88 | 0.0 | 0.0 | 0.00 | 0.28 | 0.00 | 87 | 1011.9 |
| 20260507051532 | 43 | 88 | 0.0 | 3.0 | 0.00 | 0.28 | 0.00 | 87 | 1012.0 |
| 20260507050032 | 43 | 86 | 0.0 | 2.0 | 0.00 | 0.28 | 0.00 | 86 | 1012.0 |
| 20260507044528 | 44 | 85 | 0.0 | 3.0 | 0.00 | 0.33 | 0.00 | 87 | 1012.1 |
| 20260507043028 | 44 | 83 | 0.0 | 0.0 | 0.00 | 0.33 | 0.00 | 88 | 1012.1 |
| 20260507041527 | 44 | 15 | 0.0 | 0.0 | 0.00 | 0.33 | 0.00 | 89 | 1012.2 |
| 20260507040025 | 43 | 15 | 0.0 | 0.0 | 0.00 | 0.41 | 0.33 | 90 | 1012.3 |
| 20260507034531 | 43 | 15 | 0.0 | 0.0 | 0.00 | 0.41 | 0.33 | 90 | 1012.4 |
| 20260507033023 | 43 | 15 | 0.0 | 0.0 | 0.00 | 0.41 | 0.33 | 89 | 1012.5 |
| 20260507031522 | 43 | 15 | 0.0 | 0.0 | 0.00 | 0.41 | 0.33 | 86 | 1012.7 |
| 20260507030019 | 43 | 15 | 0.0 | 0.0 | 0.00 | 0.53 | 0.33 | 84 | 1012.8 |
| 20260507024519 | 44 | 15 | 0.0 | 0.0 | 0.00 | 0.53 | 0.33 | 82 | 1012.3 |
| 20260507023017 | 45 | 15 | 0.0 | 0.0 | 0.00 | 0.53 | 0.33 | 83 | 1012.2 |
| 20260507021517 | 45 | 15 | 0.0 | 0.0 | 0.00 | 0.53 | 0.33 | 83 | 1012.2 |
| 20260507020027 | 45 | 15 | 0.0 | 0.0 | 0.00 | 0.68 | 0.33 | 82 | 1012.1 |
| 20260507014515 | 46 | 15 | 0.0 | 0.0 | 0.00 | 0.68 | 0.33 | 80 | 1012.1 |
| 20260507013017 | 46 | 15 | 0.0 | 0.0 | 0.00 | 0.68 | 0.33 | 80 | 1011.9 |
| 20260507011514 | 47 | 15 | 0.0 | 0.0 | 0.00 | 0.68 | 0.33 | 78 | 1011.8 |
| 20260507010012 | 47 | 15 | 0.0 | 0.0 | 0.00 | 0.78 | 0.33 | 76 | 1011.7 |
| 20260507004512 | 47 | 15 | 0.0 | 0.0 | 0.00 | 0.78 | 0.33 | 75 | 1011.7 |
| 20260507003009 | 47 | 15 | 0.0 | 2.0 | 0.00 | 0.78 | 0.33 | 74 | 1011.8 |
| 20260507001527 | 48 | 15 | 0.0 | 3.0 | 0.00 | 0.78 | 0.33 | 72 | 1011.7 |
| 20260507000014 | 48 | 355 | 2.0 | 4.0 | 0.00 | 0.86 | 0.33 | 71 | 1011.6 |
| 20260506234507 | 49 | 346 | 0.0 | 3.0 | 0.00 | 0.86 | 0.33 | 66 | 1011.6 |
| 20260506233006 | 49 | 346 | 1.0 | 4.0 | 0.00 | 0.86 | 0.33 | 65 | 1011.7 |
| 20260506231504 | 49 | 28 | 1.0 | 6.0 | 0.00 | 0.86 | 0.33 | 67 | 1011.4 |
| 20260506230004 | 49 | 12 | 2.0 | 6.0 | 0.00 | 1.06 | 0.33 | 67 | 1011.3 |
| 20260506224503 | 49 | 323 | 3.0 | 8.0 | 0.00 | 1.06 | 0.33 | 68 | 1011.3 |
| 20260506223002 | 49 | 277 | 2.0 | 10.0 | 0.00 | 1.06 | 0.33 | 68 | 1011.2 |
| 20260506221617 | 50 | 53 | 4.0 | 9.0 | 0.00 | 1.06 | 0.33 | 66 | 1010.9 |
| 20260506220059 | 50 | 56 | 1.0 | 9.0 | 0.00 | 1.06 | 0.33 | 67 | 1010.9 |
| 20260506214557 | 51 | 304 | 1.0 | 8.0 | 0.00 | 1.08 | 0.33 | 68 | 1010.8 |
| 20260506213102 | 52 | 5 | 3.0 | 6.0 | 0.00 | 1.08 | 0.33 | 64 | 1010.4 |
| 20260506211555 | 52 | 313 | 3.0 | 9.0 | 0.00 | 1.08 | 0.33 | 60 | 1010.2 |
| 20260506210059 | 52 | 252 | 3.0 | 12.0 | 0.00 | 1.08 | 0.33 | 60 | 1010.2 |
| 20260506204556 | 52 | 255 | 4.0 | 8.0 | 0.00 | 1.18 | 0.33 | 58 | 1010.3 |
| 20260506203108 | 52 | 296 | 2.0 | 10.0 | 0.00 | 1.18 | 0.33 | 57 | 1010.4 |
| 20260506201553 | 52 | 360 | 3.0 | 5.0 | 0.00 | 1.18 | 0.33 | 58 | 1010.2 |
| 20260506200056 | 51 | 25 | 5.0 | 10.0 | 0.00 | 1.18 | 0.33 | 57 | 1010.4 |
| 20260506194550 | 52 | 331 | 4.0 | 11.0 | 0.00 | 1.19 | 0.33 | 57 | 1010.6 |
| 20260506193052 | 52 | 242 | 5.0 | 12.0 | 0.00 | 1.19 | 0.33 | 56 | 1010.3 |
| 20260506191549 | 52 | 265 | 4.0 | 11.0 | 0.00 | 1.19 | 0.33 | 57 | 1010.5 |
| 20260506190051 | 52 | 261 | 4.0 | 13.0 | 0.00 | 1.19 | 0.33 | 60 | 1010.4 |
| 20260506184550 | 53 | 306 | 6.0 | 13.0 | 0.00 | 1.19 | 0.33 | 57 | 1010.4 |
| 20260506183045 | 53 | 355 | 5.0 | 12.0 | 0.00 | 1.19 | 0.33 | 65 | 1010.4 |
| 20260506181550 | 52 | 11 | 3.0 | 14.0 | 0.00 | 1.19 | 0.33 | 67 | 1010.5 |
| 20260506180042 | 52 | 324 | 5.0 | 13.0 | 0.00 | 1.19 | 0.33 | 58 | 1010.0 |
| 20260506174540 | 52 | 26 | 3.0 | 11.0 | 0.00 | 1.19 | 0.33 | 65 | 1010.3 |
| 20260506173044 | 52 | 323 | 4.0 | 13.0 | 0.00 | 1.19 | 0.33 | 67 | 1010.1 |
| 20260506171538 | 52 | 9 | 3.0 | 12.0 | 0.00 | 1.19 | 0.33 | 68 | 1010.0 |
| 20260506170042 | 52 | 261 | 6.0 | 14.0 | 0.00 | 1.19 | 0.33 | 64 | 1010.2 |
| 20260506164545 | 52 | 92 | 5.0 | 12.0 | 0.00 | 1.19 | 0.33 | 66 | 1010.0 |
| 20260506163033 | 52 | 360 | 3.0 | 11.0 | 0.00 | 1.19 | 0.33 | 70 | 1009.8 |
| 20260506161525 | 52 | 57 | 5.0 | 13.0 | 0.00 | 1.19 | 0.33 | 69 | 1009.5 |
| 20260506160025 | 51 | 305 | 3.0 | 10.0 | 0.00 | 1.19 | 0.33 | 74 | 1009.4 |
| 20260506154520 | 50 | 300 | 6.0 | 13.0 | 0.00 | 1.19 | 0.33 | 81 | 1009.4 |
| 20260506153017 | 50 | 287 | 4.0 | 11.0 | 0.00 | 1.19 | 0.33 | 82 | 1009.2 |
| 20260506151516 | 50 | 347 | 4.0 | 11.0 | 0.00 | 1.19 | 0.33 | 83 | 1008.9 |
| 20260506150011 | 49 | 279 | 2.0 | 12.0 | 0.00 | 1.19 | 0.33 | 87 | 1008.7 |
| 20260506144516 | 49 | 287 | 4.0 | 10.0 | 0.00 | 1.19 | 0.33 | 86 | 1008.6 |
| 20260506143007 | 48 | 281 | 5.0 | 10.0 | 0.00 | 1.19 | 0.33 | 86 | 1008.5 |
| 20260506141511 | 47 | 309 | 3.0 | 9.0 | 0.00 | 1.19 | 0.33 | 87 | 1008.4 |
| 20260506140002 | 47 | 311 | 4.0 | 9.0 | 0.00 | 1.19 | 0.33 | 90 | 1008.3 |
| 20260506134501 | 46 | 281 | 2.0 | 10.0 | 0.00 | 1.19 | 0.33 | 91 | 1008.4 |
| 20260506133114 | 46 | 283 | 1.0 | 9.0 | 0.00 | 1.19 | 0.33 | 93 | 1008.3 |
| 20260506131616 | 46 | 290 | 2.0 | 10.0 | 0.00 | 1.19 | 0.33 | 95 | 1008.1 |
| 20260506130057 | 45 | 269 | 0.0 | 8.0 | 0.00 | 1.19 | 0.33 | 96 | 1007.6 |
| 20260506124553 | 45 | 339 | 1.0 | 4.0 | 0.00 | 1.19 | 0.33 | 97 | 1007.1 |
| 20260506123054 | 45 | 288 | 0.0 | 5.0 | 0.01 | 1.19 | 0.33 | 98 | 1007.1 |
| 20260506121556 | 44 | 282 | 2.0 | 7.0 | 0.01 | 1.19 | 0.33 | 98 | 1007.3 |
| 20260506120100 | 44 | 254 | 0.0 | 6.0 | 0.01 | 1.19 | 0.33 | 98 | 1007.0 |
| 20260506114548 | 44 | 323 | 0.0 | 2.0 | 0.01 | 1.19 | 0.33 | 98 | 1007.1 |
| 20260506113047 | 44 | 328 | 0.0 | 0.0 | 0.00 | 1.18 | 0.32 | 98 | 1007.0 |
| 20260506111548 | 44 | 326 | 2.0 | 4.0 | 0.00 | 1.18 | 0.32 | 98 | 1006.7 |